Regional Weather Roundup
Issued by NWS Northern Indiana

Home | Current Version | Previous Version | Graphics & Text | Print | Product List | Glossary On
Versions: 1 2 3 4 5 6 7 8 9 10 11 12 13 14 15 16 17 18 19 20 21 22 23 24 25 26 27 28 29 30 31 32 33 34 35 36 37 38 39 40 41 42 43 44 45 46 47 48 49 50
000
ASUS43 KIWX 300010
RWRIWX

KIWX WEATHER ROUNDUP
NATIONAL WEATHER SERVICE NORTHERN INDIANA
800 PM EDT WED JUL 29 2015

NOTE: "FAIR" INDICATES FEW OR NO CLOUDS BELOW 12,000 FEET WITH NO
SIGNIFICANT WEATHER AND/OR OBSTRUCTIONS TO VISIBILITY.

* THESE STATIONS ARE NOT UNDER NWS QUALITY CONTROL. THEY ALSO MAY NOT
  REPORT WEATHER SUCH AS PRECIPITATION OR FOG.

INZ001>027-300100-
NORTHERN INDIANA

CITY           SKY/WX    TMP DP  RH WIND       PRES   REMARKS
GARY*          MOSUNNY   84  52  32 W15G26    29.97R
VALPARAISO     SUNNY     82  57  42 NW10      29.97S
6HR MIN TEMP:  81; 6HR MAX TEMP:  87;

MICHIGAN CITY* SUNNY     79  59  50 NW3       29.97S
LAPORTE*       SUNNY     82  59  46 NW5       29.97S
6HR MIN TEMP:  80; 6HR MAX TEMP:  86;

KNOX*          SUNNY     79  59  50 N6        29.96R
SOUTH BEND     SUNNY     81  59  47 NW7       29.97S
6HR MIN TEMP:  80; 6HR MAX TEMP:  85;

ELKHART*       SUNNY     81  57  44 N5        29.97
GOSHEN         SUNNY     79  59  50 NW10      29.96R
6HR MIN TEMP:  79; 6HR MAX TEMP:  86;

MONTICELLO*    MOSUNNY   82  63  53 NW10      29.97R
6HR MIN TEMP:  82; 6HR MAX TEMP:  88;

LOGANSPORT*    MOSUNNY   81  59  47 NW6       29.97R
ROCHESTER*     SUNNY     82  64  54 NW7       29.97R
WARSAW*        SUNNY     79  61  53 NW7       29.96R
ANGOLA*        CLEAR     81  75  83 NW8       29.95R
FORT WAYNE     MOCLDY    83  67  58 NW8       29.95R
6HR MIN TEMP:  83; 6HR MAX TEMP:  89; 6HR PCP: TRACE;

HUNTINGTON*    PTCLDY    82  71  69 N5        29.95R
6HR MIN TEMP:  82; 6HR MAX TEMP:  87;

PERU/GRISSOM   MOSUNNY   84  73  70 NW10      29.95R
6HR MIN TEMP:  83; 6HR MAX TEMP:  88;

MARION*        PTCLDY    82  75  78 N3        29.96R
6HR MIN TEMP:  52; 6HR MAX TEMP:  89;


$$
INZ028>050-300100-
CENTRAL INDIANA

CITY           SKY/WX    TMP DP  RH WIND       PRES   REMARKS
LAFAYETTE      MOSUNNY   80  65  59 NW8       29.98R
6HR MIN TEMP:  79; 6HR MAX TEMP:  86;

KOKOMO*        PTSUNNY   84  73  70 N7        29.95S
6HR MIN TEMP:  84; 6HR MAX TEMP:  88;

MUNCIE*        MOCLDY    84  74  71 NW9       29.95R
6HR MIN TEMP:  84; 6HR MAX TEMP:  89;

INDIANAPOLIS   CLOUDY    84  73  69 NW12      29.96R
6HR MIN TEMP:  84; 6HR MAX TEMP:  91; 6HR PCP: TRACE;


$$
MIZ043>046-050>051-056>058-064>065-071>073-077>080-300100-
SOUTHWEST LOWER MICHIGAN

CITY           SKY/WX    TMP DP  RH WIND       PRES   REMARKS
BATTLE CREEK   SUNNY     80  58  46 W10       29.95S
6HR MIN TEMP:  80; 6HR MAX TEMP:  87;

BENTON HARBOR  SUNNY     79  59  50 W10       29.95S
6HR MIN TEMP:  79; 6HR MAX TEMP:  83;

COLDWATER*     CLEAR     78  59  50 W7        29.95R
6HR MIN TEMP:  78; 6HR MAX TEMP:  87;

HILLSDALE*     CLEAR     80  60  50 NW10      29.95R
HOLLAND        SUNNY     79  59  50 W10       29.93F
6HR MIN TEMP:  79; 6HR MAX TEMP:  83;

GRAND RAPIDS   MOSUNNY   82  51  34 W17G26    29.92S
6HR MIN TEMP:  82; 6HR MAX TEMP:  87;

KALAMAZOO      SUNNY     80  57  45 NW7       29.95S
6HR MIN TEMP:  80; 6HR MAX TEMP:  86;

STURGIS*       SUNNY     79  61  53 NW7       29.95R
THREE RIVERS*  FAIR      80  59  49 NW8       29.95S
6HR MIN TEMP:  80; 6HR MAX TEMP:  86;


$$
OHZ001>008-015>018-024>025-300100-
NORTHWEST OHIO

CITY           SKY/WX    TMP DP  RH WIND       PRES   REMARKS
WAUSEON*       FAIR      82  79  89 SW5       29.92R
DEFIANCE       CLEAR     85  71  63 NW13      29.92R
6HR MIN TEMP:  83; 6HR MAX TEMP:  90; 6HR PCP: TRACE;

FINDLAY        LGT RAIN  74  70  87 S5        29.93R FOG
6HR MIN TEMP:  73; 6HR MAX TEMP:  92; 6HR PCP:  0.15;

TOLEDO EXPRESS MOCLDY    80  76  87 SW5       29.90S
6HR MIN TEMP:  74; 6HR MAX TEMP:  91; 6HR PCP:  1.38;

TOLEDO METCALF MOCLDY    81  73  76 SW9       29.91S
6HR MIN TEMP:  76; 6HR MAX TEMP:  92; 6HR PCP:  0.13;

LIMA           LGT RAIN  80  74  81 W7        29.95R
6HR MIN TEMP:  75; 6HR MAX TEMP:  90; 6HR PCP:  0.06;


$$
AND FOR LAKE MICHIGAN COASTAL AND OPEN LAKE BUOY OBSERVATIONS

STATION/POSITION TEMP    WIND        PRES    VSBY  WAVE
                 AIR SEA DIR/SP/G                  HT/PER
                 (F)     (DEG/KT/KT) (MB)    (MI)  (FT/S)
CALUMET HARBOR    85     270/  7/ 12   N/A
MICHIGAN CITY     78     240/  3/  4   N/A
BURNS HARBOR      83      30/  2/  3 1014.9S
SAINT JOSEPH      82     250/  5/  7 1014.6F
4 MI NW BRIDGMAN  78 76  350/ 12/ 12   N/A           1/ 2
MICHIGAN CITY     79 77  310/  6/  8   N/A           1
MICHIGAN CITY CG  80 75  290/  4       N/A       6   0

$$
&&



USA.gov is the U.S. government's official web portal to all federal, state and local government web resources and services.